sat.trackr.live / text

‹ back to catalog

A-SEANSAT-PG1

NORAD 57197 · 2023-091AH

PAYLOAD ACTIVE UNKNOWN

§ Identity

Operator
Country
MALA
Launch date
2023-06-27
Launch site
VOSTO
Launch vehicle
Mass (kg)
RCS (m²)

External: N2YO · Heavens-Above · Gunter

§ Orbital elements

Epoch: 2026-09-21T22:06:37.095552Z

Period
93.51 min
Inclination
97.4992°
Eccentricity
0.0007854
Mean motion
15.40016972 rev/d
Perigee alt
440.7 km
Apogee alt
451.4 km
Semi-major
6,824.2 km
B*
3.4430e-4
RAAN
336.7352°
Arg perigee
94.2321°
Mean anomaly
265.9823°
Rev number
17,958

§ Raw data

A-SEANSAT-PG11 57197U 23091AH  26264.92126268  .00013680  00000+0  34430-3 0  99942 57197  97.4992 336.7352 0007854  94.2321 265.9823 15.40016972179585

JSON: /api/v1/satellites/57197 · /tle

For live sub-satellite position, see the globe view (requires WebGL).

§ Visibility from observer

Set your observer location to see the next 7 days of passes ≥ 10°. The values pass through the URL so the page stays shareable.

No JS? Fill the form by hand. The geolocation button needs JavaScript.

§ Radio — SatNOGS DB

ModeDescriptionDownlinkUplink
GMSK USP Mode U - GMSK 2k4 USP FEC 401.523 MHz
GMSK USP Mode U - GMSK 2k4 USP FEC 401.634 MHz

2 transmitters · refreshed weekly from db.satnogs.org